Precipitable_Water
1.40 1.43 1.31 1.30 1.21 1.20 1.18 1.22 1.28 1.30 1.35 1.34 1.30 1.29 1.27 1.27 1.29 1.30 1.33 1.34 1.32 1.31 1.27 1.23 1.19 1.16 1.14 1.10 1.07 1.04 1.01 1.00 1.02 1.05 1.04 1.02 1.02 1.08 1.19 1.22 1.35 1.41 1.37
1.49 1.41 1.34 1.29 1.27 1.29 1.28 1.29 1.34 1.36 1.37 1.32 1.29 1.30 1.30 1.30 1.30 1.30 1.30 1.31 1.33 1.35 1.34 1.33 1.29 1.23 1.16 1.13 1.11 1.08 1.04 1.01 1.00 1.00 1.00 1.12 1.21 1.19 1.20 1.21 1.25 1.28 1.24
1.51 1.37 1.35 1.36 1.34 1.34 1.38 1.40 1.45 1.45 1.42 1.37 1.32 1.33 1.33 1.32 1.32 1.35 1.36 1.36 1.36 1.38 1.35 1.38 1.39 1.37 1.29 1.21 1.15 1.12 1.09 1.05 1.02 0.99 0.99 1.24 1.44 1.35 1.35 1.27 1.32 1.32 1.27
1.49 1.38 1.34 1.34 1.34 1.36 1.40 1.45 1.53 1.61 1.59 1.48 1.44 1.46 1.47 1.44 1.39 1.37 1.38 1.37 1.36 1.37 1.38 1.38 1.41 1.41 1.39 1.29 1.23 1.20 1.17 1.12 1.05 1.01 1.01 1.30 1.50 1.41 1.33 1.20 1.27 1.27 1.20
1.43 1.46 1.34 1.33 1.35 1.37 1.41 1.49 1.55 1.61 1.62 1.52 1.46 1.46 1.43 1.40 1.32 1.28 1.28 1.30 1.31 1.29 1.30 1.30 1.32 1.32 1.35 1.37 1.34 1.30 1.24 1.21 1.15 1.06 1.12 1.27 1.38 1.37 1.33 1.19 1.25 1.37 1.35
1.43 1.39 1.34 1.31 1.30 1.35 1.43 1.51 1.54 1.57 1.60 1.48 1.40 1.39 1.34 1.27 1.24 1.22 1.22 1.22 1.21 1.16 1.16 1.17 1.18 1.20 1.23 1.30 1.36 1.41 1.40 1.33 1.22 1.12 1.29 1.53 1.44 1.27 1.19 1.15 1.16 1.21 1.34
1.33 1.35 1.33 1.31 1.31 1.35 1.44 1.50 1.48 1.50 1.55 1.45 1.35 1.31 1.26 1.19 1.15 1.11 1.07 1.02 0.94 0.87 0.82 0.81 0.81 0.83 0.87 0.93 1.05 1.20 1.32 1.43 1.40 1.27 1.38 1.46 1.62 1.55 1.41 1.30 1.16 1.26 1.37
1.27 1.30 1.29 1.30 1.33 1.39 1.46 1.49 1.49 1.51 1.53 1.40 1.26 1.22 1.13 1.06 0.99 0.90 0.83 0.80 0.75 0.70 0.66 0.64 0.62 0.61 0.63 0.67 0.68 0.72 0.79 1.02 1.36 1.44 1.50 1.51 1.58 1.63 1.54 1.43 1.32 1.20 1.31
1.28 1.27 1.30 1.32 1.35 1.38 1.43 1.45 1.47 1.47 1.44 1.27 1.15 1.06 0.91 0.76 0.70 0.67 0.63 0.62 0.60 0.57 0.54 0.52 0.51 0.50 0.50 0.51 0.51 0.48 0.46 0.55 0.62 0.89 1.47 1.50 1.57 1.70 1.70 1.61 1.52 1.35 1.30
1.27 1.28 1.27 1.30 1.30 1.28 1.31 1.32 1.33 1.26 1.16 0.94 0.78 0.70 0.70 0.71 0.66 0.60 0.56 0.54 0.53 0.51 0.49 0.48 0.48 0.49 0.53 0.54 0.54 0.50 0.47 0.48 0.65 0.91 0.96 1.01 1.31 1.47 1.56 1.60 1.57 1.53 1.44
1.17 1.23 1.26 1.28 1.27 1.22 1.15 1.13 1.07 0.98 0.86 0.75 0.68 0.69 0.73 0.72 0.68 0.62 0.56 0.54 0.52 0.51 0.50 0.50 0.49 0.51 0.54 0.56 0.58 0.55 0.60 0.57 0.59 0.70 0.73 0.85 0.84 0.84 0.94 1.34 1.57 1.60 1.58
1.01 1.11 1.21 1.23 1.21 1.15 1.09 1.02 0.93 0.90 0.83 0.77 0.75 0.74 0.73 0.69 0.63 0.64 0.62 0.59 0.57 0.55 0.56 0.55 0.54 0.56 0.54 0.53 0.55 0.54 0.53 0.51 0.55 0.65 0.65 0.66 0.68 0.69 0.71 0.80 0.92 1.29 1.56
0.99 1.04 1.11 1.15 1.16 1.04 1.03 0.95 0.88 0.84 0.80 0.76 0.75 0.77 0.74 0.72 0.68 0.67 0.64 0.61 0.59 0.57 0.56 0.56 0.57 0.54 0.54 0.53 0.52 0.53 0.52 0.52 0.56 0.62 0.64 0.61 0.58 0.59 0.64 0.75 0.84 0.90 0.94
0.94 0.97 1.04 1.12 1.06 0.98 0.88 0.86 0.83 0.80 0.79 0.79 0.77 0.77 0.72 0.69 0.64 0.62 0.59 0.59 0.58 0.57 0.54 0.54 0.53 0.51 0.51 0.51 0.50 0.51 0.50 0.53 0.57 0.63 0.65 0.62 0.61 0.57 0.58 0.58 0.66 0.78 0.81
0.90 0.91 0.97 1.04 0.98 0.89 0.86 0.85 0.84 0.83 0.81 0.76 0.71 0.67 0.66 0.64 0.62 0.62 0.59 0.58 0.56 0.55 0.53 0.52 0.52 0.51 0.52 0.52 0.52 0.52 0.51 0.55 0.60 0.61 0.67 0.66 0.61 0.57 0.56 0.57 0.59 0.59 0.64
0.85 0.83 0.91 0.94 0.90 0.87 0.88 0.86 0.79 0.73 0.68 0.67 0.66 0.65 0.63 0.61 0.58 0.58 0.57 0.57 0.56 0.57 0.57 0.57 0.55 0.54 0.54 0.52 0.51 0.52 0.53 0.57 0.62 0.62 0.69 0.65 0.60 0.56 0.54 0.52 0.57 0.62 0.64
0.81 0.83 0.89 0.90 0.91 0.89 0.83 0.75 0.71 0.69 0.69 0.66 0.64 0.63 0.62 0.62 0.61 0.60 0.60 0.59 0.58 0.60 0.59 0.59 0.59 0.56 0.54 0.51 0.48 0.49 0.52 0.57 0.58 0.58 0.58 0.61 0.60 0.58 0.55 0.52 0.52 0.55 0.57
0.83 0.83 0.88 0.90 0.88 0.81 0.76 0.72 0.71 0.69 0.67 0.66 0.66 0.65 0.63 0.63 0.64 0.62 0.61 0.59 0.61 0.61 0.60 0.57 0.56 0.53 0.52 0.48 0.44 0.44 0.49 0.56 0.55 0.57 0.54 0.52 0.50 0.54 0.57 0.55 0.53 0.54 0.52
0.84 0.86 0.87 0.90 0.83 0.79 0.75 0.74 0.72 0.70 0.68 0.68 0.69 0.68 0.67 0.66 0.66 0.65 0.63 0.62 0.64 0.62 0.60 0.57 0.54 0.53 0.49 0.45 0.39 0.40 0.48 0.50 0.53 0.55 0.50 0.46 0.48 0.49 0.50 0.54 0.55 0.54 0.54
0.87 0.89 0.88 0.89 0.85 0.81 0.79 0.77 0.74 0.72 0.72 0.72 0.72 0.71 0.71 0.68 0.67 0.67 0.65 0.63 0.64 0.60 0.58 0.53 0.49 0.47 0.47 0.41 0.38 0.43 0.48 0.50 0.49 0.49 0.46 0.47 0.47 0.48 0.48 0.47 0.49 0.53 0.55
0.86 0.86 0.88 0.86 0.85 0.81 0.77 0.76 0.75 0.72 0.73 0.72 0.72 0.72 0.70 0.69 0.68 0.66 0.65 0.61 0.61 0.57 0.51 0.47 0.44 0.40 0.43 0.40 0.35 0.32 0.41 0.50 0.55 0.53 0.49 0.47 0.45 0.46 0.47 0.47 0.46 0.46 0.49
0.82 0.86 0.88 0.87 0.82 0.80 0.81 0.80 0.80 0.76 0.75 0.74 0.73 0.71 0.71 0.69 0.66 0.62 0.59 0.58 0.53 0.51 0.46 0.43 0.40 0.35 0.40 0.41 0.31 0.33 0.36 0.51 0.51 0.50 0.49 0.46 0.44 0.45 0.44 0.45 0.46 0.45 0.47
0.76 0.81 0.85 0.87 0.83 0.81 0.81 0.80 0.79 0.76 0.72 0.70 0.70 0.69 0.67 0.63 0.61 0.58 0.57 0.54 0.50 0.46 0.41 0.39 0.38 0.36 0.35 0.37 0.37 0.31 0.25 0.29 0.39 0.48 0.46 0.44 0.45 0.44 0.44 0.43 0.40 0.42 0.45
0.72 0.79 0.82 0.84 0.81 0.80 0.79 0.76 0.72 0.70 0.68 0.69 0.67 0.64 0.61 0.58 0.56 0.56 0.53 0.49 0.46 0.43 0.38 0.38 0.39 0.36 0.33 0.28 0.31 0.32 0.33 0.31 0.21 0.29 0.42 0.41 0.45 0.44 0.44 0.43 0.38 0.36 0.39
0.71 0.74 0.77 0.81 0.81 0.80 0.77 0.79 0.77 0.73 0.70 0.67 0.63 0.58 0.57 0.56 0.54 0.51 0.50 0.47 0.41 0.41 0.40 0.37 0.33 0.32 0.31 0.30 0.24 0.23 0.23 0.30 0.26 0.22 0.22 0.29 0.35 0.40 0.41 0.37 0.34 0.31 0.34
0.69 0.72 0.74 0.75 0.74 0.76 0.73 0.75 0.72 0.67 0.65 0.62 0.59 0.56 0.55 0.53 0.51 0.48 0.45 0.42 0.38 0.35 0.35 0.33 0.31 0.28 0.26 0.25 0.24 0.22 0.19 0.20 0.18 0.18 0.18 0.19 0.19 0.29 0.34 0.33 0.31 0.27 0.28
Wind_Speed
6 8 8 7 6 5 5 5 4 5 5 5 4 4 4 4 4 5 5 5 6 6 7 7 7 8 8 8 8 8 7 7 7 7 6 6 6 5 6 5 6 5 5
8 9 9 8 7 7 7 7 6 6 6 6 5 5 5 5 6 6 6 7 7 7 8 8 8 9 9 9 8 8 8 8 8 8 8 7 7 6 6 6 7 7 7
11 10 10 9 8 8 8 8 8 8 8 7 7 6 6 6 7 7 7 7 8 8 8 9 9 9 9 9 9 9 9 9 9 9 9 9 8 7 7 8 8 8 8
10 11 11 10 10 10 9 9 8 8 8 8 7 7 6 6 6 7 7 8 8 8 8 9 9 9 10 10 10 10 10 10 10 10 10 10 10 9 9 9 9 9 9
10 10 11 11 11 10 10 10 10 9 8 7 6 6 6 6 7 7 8 9 9 8 9 10 10 11 11 11 11 12 12 12 12 12 11 12 9 10 10 10 10 10 10
11 10 11 11 11 11 11 11 10 10 9 9 8 7 7 8 8 9 9 9 9 9 10 10 11 12 12 13 13 13 14 14 14 13 14 17 15 14 13 12 12 12 12
11 11 11 11 11 10 10 10 10 10 10 9 9 9 9 8 9 9 9 9 10 11 11 12 12 13 13 13 14 14 15 16 16 15 15 12 12 13 13 14 14 14 14
11 11 11 11 11 11 11 10 10 10 9 9 9 9 8 8 9 10 10 11 12 13 13 14 14 14 14 15 15 15 15 16 17 17 16 16 15 15 16 16 16 17 17
12 12 11 11 12 12 12 11 11 10 10 9 9 9 9 10 10 11 11 12 13 14 14 15 15 16 16 16 16 17 17 18 17 17 18 18 17 17 17 18 18 18 18
12 12 12 12 12 13 13 11 11 10 10 10 10 10 10 11 11 12 13 13 14 15 15 16 16 16 16 17 17 18 18 17 18 19 18 18 20 21 22 21 21 20 20
14 13 13 13 12 12 11 11 11 11 11 11 11 12 12 13 13 13 14 15 15 16 16 17 17 18 18 18 18 19 19 19 19 20 19 20 21 22 23 24 23 23 23
15 15 15 14 13 13 13 13 13 13 12 13 13 14 14 14 15 16 16 17 17 18 19 19 19 20 20 20 20 20 20 20 20 20 20 21 23 23 24 24 24 23 23
16 16 16 15 14 14 14 14 14 14 14 14 15 15 16 16 17 18 18 19 19 20 20 21 20 21 21 21 21 21 22 22 22 23 22 23 23 24 23 24 23 23 23
17 16 16 16 16 15 15 16 16 16 16 16 17 17 18 18 19 19 20 20 20 21 21 22 22 22 22 22 23 23 23 23 23 24 23 23 23 23 24 24 25 25 25
16 17 17 17 17 17 17 16 17 17 17 17 17 18 19 19 20 20 21 21 22 22 23 23 23 23 23 23 24 24 24 24 24 25 24 24 23 24 24 24 24 25 26
18 18 18 18 18 18 18 18 18 18 18 18 18 18 19 20 21 21 22 22 23 23 24 24 24 24 25 25 25 24 24 24 24 24 25 25 24 24 24 24 24 24 24
19 19 19 19 19 19 19 19 19 19 19 18 18 18 19 20 21 22 23 23 24 24 25 25 25 25 26 26 26 26 25 25 25 25 25 25 25 25 25 25 25 25 25
21 20 20 20 20 20 20 20 19 20 19 19 19 20 21 22 23 23 24 24 25 25 25 26 26 27 27 27 27 27 26 26 26 25 25 27 27 27 27 26 26 26 26
21 21 22 21 21 21 21 20 20 21 21 21 21 22 22 23 24 24 24 25 25 25 26 27 27 28 28 28 28 28 27 26 26 27 27 28 28 28 29 28 27 27 27
22 22 22 22 22 22 23 23 23 23 23 23 23 23 23 23 24 24 24 25 25 26 26 27 27 27 28 28 29 29 28 27 28 29 29 29 30 30 30 30 31 30 28
23 24 25 24 24 24 24 23 23 23 23 23 23 23 24 24 24 25 25 25 25 25 26 26 27 28 28 29 28 29 29 29 29 30 31 32 31 31 31 31 32 32 32
25 26 26 26 26 26 26 25 25 24 24 24 24 24 24 24 24 24 24 24 25 25 25 26 26 27 27 27 28 28 28 28 29 29 30 31 31 32 32 31 31 31 32
26 26 27 27 28 28 26 26 25 25 26 26 25 24 24 24 24 23 23 24 24 25 25 25 26 26 27 28 27 26 26 27 30 29 29 29 28 28 29 30 29 29 30
27 27 27 27 28 28 27 27 26 26 26 25 24 24 25 24 23 24 24 23 24 24 24 25 25 25 25 25 25 25 25 26 25 25 23 23 22 23 24 25 26 26 26
26 27 27 27 28 27 28 27 26 25 24 25 25 24 22 22 22 22 22 22 22 23 23 22 22 22 22 23 23 23 22 21 20 21 24 25 24 23 22 21 21 22 23
25 24 26 26 27 27 27 26 25 24 23 22 22 22 22 22 21 21 21 21 21 20 20 19 19 19 19 19 18 17 16 16 17 17 19 21 22 22 21 20 20 20 20
Wind_Direction
240 229 225 232 241 257 277 285 295 302 318 326 329 327 321 320 319 320 321 320 320 319 318 315 313 314 315 317 319 320 320 319 317 315 312 308 304 300 306 304 305 294 300
232 225 226 235 249 260 271 278 285 290 296 303 304 305 307 309 313 314 313 313 313 313 314 314 312 309 309 310 312 312 312 310 309 306 305 300 296 294 297 300 295 296 294
232 228 229 238 250 262 270 275 277 284 286 289 288 293 299 305 310 313 314 314 313 311 311 311 310 310 307 307 306 306 306 305 304 302 300 295 278 285 292 292 290 290 290
230 233 235 242 252 260 266 271 276 279 283 281 277 282 293 305 309 313 316 315 314 314 315 314 312 309 307 304 303 302 302 301 300 298 294 296 276 279 289 293 284 284 287
235 238 238 245 252 259 263 267 269 270 274 272 271 280 288 300 306 310 312 312 312 311 313 312 310 307 304 301 299 298 297 296 296 294 289 292 273 275 284 287 284 280 280
239 239 243 250 254 259 263 266 264 265 267 265 266 274 284 294 300 305 309 308 309 311 311 311 311 309 305 301 297 294 292 291 291 288 288 289 274 273 275 280 281 279 275
237 240 247 253 254 257 264 262 261 261 261 260 261 270 281 290 298 304 307 306 308 310 309 309 309 308 306 304 300 297 293 289 286 284 284 292 285 275 276 278 279 278 276
238 245 250 254 255 261 260 258 257 256 257 258 260 268 279 290 298 302 303 305 307 308 308 307 307 306 303 301 299 297 296 291 287 280 279 281 282 278 277 279 279 276 275
243 249 252 256 259 261 258 255 255 254 253 257 262 269 279 290 296 299 301 303 306 307 307 306 306 305 303 301 299 297 293 289 288 282 278 279 279 279 279 279 279 276 275
246 251 255 259 262 260 253 252 252 253 255 258 263 269 277 287 296 297 298 302 304 305 306 305 305 304 302 300 298 298 295 290 287 282 279 280 279 278 278 278 277 275 274
246 251 258 260 260 255 250 248 250 252 256 261 267 272 277 283 289 293 297 297 300 300 301 302 302 302 301 300 295 296 295 291 286 282 282 282 281 280 279 277 277 273 272
246 252 257 259 256 253 251 251 252 255 260 265 270 275 278 282 287 289 292 294 296 298 296 298 299 299 299 298 296 295 293 291 287 281 282 283 283 282 280 277 275 275 272
247 252 254 256 255 255 254 253 255 258 263 268 273 276 278 282 286 288 291 293 294 297 298 298 297 298 297 296 295 294 292 289 287 283 283 283 283 282 279 276 274 274 273
247 247 250 254 254 255 256 257 259 262 265 270 274 278 280 282 285 288 290 292 294 295 296 297 297 296 296 295 294 293 292 289 288 284 283 284 284 282 280 276 274 272 273
247 250 253 254 254 255 257 258 262 265 268 271 275 278 281 283 285 288 290 292 293 295 295 295 296 296 296 295 293 292 291 289 287 285 282 283 284 283 281 279 276 274 271
250 253 254 255 256 256 258 261 264 267 268 273 276 280 283 285 286 288 289 291 292 294 295 295 295 295 295 295 293 292 290 288 287 285 281 281 283 282 281 280 277 274 272
253 253 255 256 257 258 260 262 265 267 269 273 276 280 284 287 288 289 289 291 292 293 294 294 294 295 295 294 293 291 289 287 286 284 283 281 282 281 281 281 276 274 272
253 254 255 256 256 258 260 264 265 267 270 272 276 281 285 288 289 289 289 290 291 292 293 293 294 294 294 294 292 290 289 287 286 284 284 283 282 281 280 280 277 274 273
254 255 255 255 256 258 261 264 266 268 270 273 277 280 284 288 289 289 290 291 291 292 293 293 293 294 294 295 293 290 288 287 286 284 284 284 284 282 280 278 275 275 274
257 256 256 257 258 260 262 265 267 268 270 274 277 281 285 288 289 290 290 291 292 291 293 294 294 293 294 296 294 290 287 287 286 285 284 285 285 281 280 279 276 274 273
258 258 257 257 259 262 264 267 268 270 272 276 279 283 285 287 289 289 290 291 292 292 294 295 295 295 295 297 295 293 288 284 285 286 286 285 284 282 280 279 277 274 271
259 259 258 258 259 262 265 268 268 270 273 275 280 283 285 287 288 289 289 290 292 292 295 296 297 296 295 299 297 292 291 285 289 286 286 287 285 282 279 279 277 274 271
261 259 258 258 259 262 263 266 268 270 273 276 278 281 284 286 287 288 289 290 292 293 295 296 297 298 296 299 300 296 290 288 289 288 288 288 286 283 281 279 278 275 272
262 260 259 258 258 261 262 263 265 268 271 273 276 280 283 285 287 288 289 291 292 294 296 297 298 299 299 300 299 300 296 292 288 286 289 295 289 287 286 285 281 277 275
263 260 259 257 257 260 261 263 264 268 268 271 276 279 281 285 288 289 290 292 293 295 296 298 300 302 303 304 304 302 298 297 294 285 281 289 287 291 285 287 289 283 278
263 261 259 258 258 259 258 260 262 263 265 269 272 275 279 283 286 288 290 292 293 295 298 299 302 305 308 307 309 310 307 299 300 298 292 293 287 284 284 288 287 289 284